Flag for Germany Weather past 2 weeks in Forchheim, Bavaria, Germany

Now
38 °F

Fog.


Feels Like: 38 °F
Forecast: 42 / 71 °F
Wind: 1 mph from Northeast

Location: Bamberg


UV Index: 0 (Low)

Visibility: 3 mi


Pressure: 29.76 "Hg

Humidity: 100%

Dew point: 38 °F

Location of ForchheimLocation

Historic Weather in Forchheim

°F

Forchheim temperature yesterday

Maximum temperature yesterday: 66 °F (at 2:00 PM)
Minimum temperature yesterday: 42 °F (at 11:00 PM)
Average temperature yesterday: 55 °F

Past Weeks' High & Low Weather Summary

 TemperatureHumidityPressure
High71 °F (Apr 7, 5:00 PM)100% (Apr 16, 7:00 AM)30.44 "Hg (Apr 16, 7:00 AM)
Low25 °F (Apr 17, 6:00 AM)29% (Apr 17, 3:00 PM)29.70 "Hg (Apr 20, 4:00 PM)
Average50 °F73%30.07 "Hg
* Reported Apr 6 1:00 AM — Apr 21 1:00 AM, Forchheim, Weather by CustomWeather, © 2014

Note: Actual official high and low records may vary slightly from our data, if they occured in-between our weather recording intervals... More about our weather records

Advertising

Historic Weather Conditions — Data for Previous 24 hours

 ConditionsComfort  
Time TempWeatherWind HumidityBarometerVisibility
1:00 AM
Apr 21
39 °FFog.1 mph100%29.77 "Hg2 mi
12:00 AM40 °FFog.1 mph100%29.77 "Hg2 mi
11:00 PM
Apr 20
42 °FFog.1 mph99%29.78 "Hg2 mi
10:00 PM44 °FClear.1 mph99%29.77 "Hg2 mi
9:00 PM47 °FFog.No wind99%29.76 "Hg2 mi
8:00 PM50 °FFog.1 mph95%29.74 "Hg4 mi
7:00 PM55 °FOvercast.2 mph85%29.74 "Hg28 mi
6:00 PM62 °FLight rain. Partly sunny.6 mph50%29.73 "Hg43 mi
5:00 PM62 °FPartly sunny.6 mph51%29.72 "Hg43 mi
4:00 PM66 °FScattered clouds.6 mph36%29.70 "Hg43 mi
3:00 PM66 °FScattered clouds.5 mph37%29.72 "Hg43 mi
2:00 PM66 °FOvercast.5 mph43%29.73 "Hg43 mi
1:00 PM65 °FScattered clouds.5 mph48%29.74 "Hg25 mi
12:00 PM61 °FScattered clouds.5 mph54%29.76 "Hg25 mi
11:00 AM59 °FPartly sunny.5 mph61%29.77 "Hg22 mi
10:00 AM59 °FPassing clouds.5 mph60%29.78 "Hg19 mi
9:00 AM57 °FScattered clouds.2 mph67%29.78 "Hg19 mi
8:00 AM54 °FSunny.1 mph81%29.77 "Hg12 mi
7:00 AM45 °FFog.1 mph96%29.78 "Hg3 mi
6:00 AM46 °FClear.1 mph93%29.78 "Hg7 mi
5:00 AM47 °FFog.2 mph90%29.78 "Hg4 mi
4:00 AM53 °FPassing clouds.3 mph77%29.77 "Hg8 mi
3:00 AM55 °FOvercast.5 mph73%29.79 "Hg9 mi
2:00 AM52 °FFog.2 mph87%29.81 "Hg4 mi
Weather by CustomWeather, © 2014

See weather overview